Wind_Speed
34 31 29 26 24 22 22 21 18 16 17 15 15 14 14 13 12 11 10 8 6 6 5 7 8 5 9 8 8 9 8 9 9 10 10 10 9 10 10 11 12 13 13
33 31 29 26 23 21 21 19 15 14 15 16 15 14 12 10 9 8 8 7 5 7 2 1 1 4 2 6 6 7 8 9 10 9 9 10 9 9 11 12 13 13 13
32 29 28 25 23 20 20 18 16 15 15 16 15 13 11 9 7 6 4 4 5 6 6 4 6 4 5 5 5 7 9 10 10 8 9 9 8 9 10 12 11 11 11
32 29 27 26 22 21 19 16 15 15 16 14 14 11 10 9 6 5 4 4 4 4 5 7 8 8 7 8 7 7 9 10 10 9 9 7 9 10 11 11 10 10 11
31 28 26 25 22 21 18 14 13 11 14 14 13 11 11 9 10 10 7 6 6 6 6 7 8 9 9 10 9 8 10 11 11 10 9 7 8 10 10 10 10 11 12
30 28 24 22 22 21 18 15 11 11 11 11 11 10 10 12 13 13 12 12 11 9 8 10 11 11 11 11 11 11 11 14 13 13 11 9 10 10 11 11 11 12 12
31 28 25 23 23 21 17 14 12 12 13 14 13 13 15 15 17 18 17 16 16 14 13 14 14 13 13 12 12 13 13 14 16 15 15 14 14 13 14 13 13 14 13
32 28 27 25 25 21 21 16 14 15 17 16 16 16 15 18 23 22 22 21 19 18 18 20 17 17 16 16 15 15 15 16 17 17 18 19 18 18 17 17 17 17 16
32 31 28 26 22 22 21 18 15 16 19 19 19 18 8 11 11 13 14 15 18 20 21 21 19 21 20 20 19 19 19 19 20 18 19 21 22 23 22 21 21 20 21
31 33 28 27 25 24 23 21 18 18 20 23 25 28 27 26 17 12 16 16 15 16 16 18 19 23 24 24 22 22 21 24 23 23 23 22 25 25 26 24 22 22 22
39 37 35 28 30 30 25 24 23 23 22 24 26 30 32 33 34 33 26 22 25 22 19 20 18 22 25 25 25 22 23 25 28 27 27 27 26 27 28 29 27 26 25
46 44 41 39 32 30 26 23 24 25 25 25 28 32 36 34 33 36 37 35 32 29 25 24 24 22 21 25 25 25 26 24 27 29 31 31 31 32 30 31 32 31 31
43 42 39 40 39 36 33 30 28 27 29 31 33 33 34 36 38 41 39 35 32 30 29 27 25 22 23 23 26 28 25 23 23 25 27 27 32 33 36 36 35 36 37
48 44 42 44 44 43 43 40 39 36 33 35 37 36 32 32 37 31 37 36 31 32 31 29 27 24 23 26 24 23 24 25 25 28 30 30 29 30 32 34 36 38 39
54 51 50 49 48 48 48 47 47 45 40 38 37 38 37 27 28 31 36 40 38 26 30 32 26 25 24 23 23 23 23 24 27 27 26 27 28 30 31 33 35 36 37
51 52 50 51 50 51 51 46 44 42 41 41 40 41 40 48 40 38 40 37 34 36 30 27 22 22 20 21 23 23 25 26 26 26 27 29 30 31 33 35 37 39 41
40 39 37 40 41 43 43 42 43 44 40 39 49 48 39 34 36 37 35 36 37 33 34 29 24 21 21 23 23 25 27 27 28 24 25 27 29 31 33 35 37 39 41
39 33 41 40 40 42 41 43 46 45 39 39 36 29 32 32 32 34 32 34 34 33 30 25 21 21 23 22 23 23 24 25 28 28 27 27 27 29 32 34 36 38 41
36 42 34 39 36 40 46 46 42 43 37 31 36 31 34 33 33 31 32 30 29 27 23 22 21 22 20 21 22 25 25 25 24 25 26 28 30 32 32 33 34 36 39
40 40 41 38 36 30 34 37 40 39 36 32 33 31 30 29 28 26 25 26 24 22 20 20 20 19 20 22 25 25 23 25 26 25 27 29 28 30 33 36 38 37 38
44 45 44 45 44 43 46 47 42 33 37 35 36 34 30 24 22 21 21 21 21 21 21 20 19 19 21 23 22 22 25 25 27 26 26 29 33 34 35 36 36 38 39
46 48 49 47 49 50 46 41 33 31 32 34 33 32 28 24 22 21 22 22 22 22 21 19 19 20 22 21 23 24 25 24 19 24 29 34 33 35 36 36 39 42 43
35 39 43 43 41 36 35 29 33 36 35 34 33 28 25 21 21 22 22 22 21 20 19 17 19 21 20 22 23 24 24 24 23 26 30 30 30 34 34 34 41 44 42
31 31 29 29 29 28 24 28 29 30 27 24 24 23 21 21 21 21 22 22 20 18 17 18 18 20 20 21 23 24 25 26 26 24 27 30 27 35 37 40 44 37 28
23 28 29 31 30 27 29 29 26 25 24 23 21 20 20 21 22 24 21 18 15 16 17 17 19 20 21 22 22 24 22 22 24 23 27 26 25 35 43 42 24 26 28
25 26 26 28 28 24 22 20 20 21 21 20 20 21 23 22 21 19 15 13 14 16 16 17 17 18 19 19 21 21 23 24 22 20 15 25 28 22 23 37 28 34 29
Wind_Direction
167 167 167 168 165 163 164 159 151 152 152 147 142 133 121 110 104 109 136 133 139 120 124 137 138 90 62 53 49 33 32 22 13 11 16 18 18 16 13 9 7 3 4
172 170 170 170 166 164 163 161 158 157 160 158 152 146 138 126 116 115 119 131 139 148 172 336 198 178 9 32 14 9 7 0 358 3 1 4 3 1 359 356 355 354 355
178 173 175 169 169 170 172 167 168 167 171 167 167 161 156 151 143 128 121 138 157 168 190 235 275 285 284 333 345 345 353 351 347 348 350 355 354 350 351 349 350 348 345
182 180 177 178 173 178 176 175 179 172 175 177 177 178 175 187 179 197 179 177 180 202 216 228 249 270 272 297 320 330 337 339 335 335 339 345 348 347 344 346 348 348 344
186 184 182 180 182 185 182 182 185 187 184 180 182 190 199 204 220 226 220 221 228 231 234 245 255 263 270 280 299 306 317 324 327 324 326 326 336 336 336 338 339 342 345
193 191 189 193 194 195 189 194 194 195 192 195 204 209 221 235 233 235 241 244 246 246 247 254 253 253 261 269 286 291 299 310 317 313 316 310 315 320 325 327 330 331 338
198 196 197 200 204 201 207 203 207 210 207 213 220 231 239 246 245 245 248 249 253 257 261 266 259 256 264 266 277 284 287 292 301 301 305 307 306 311 312 315 316 316 324
202 202 203 207 207 206 215 214 219 226 224 226 234 243 250 258 257 255 253 256 261 265 264 264 264 266 263 262 269 274 278 283 282 284 288 296 297 300 302 307 307 307 312
206 205 208 212 211 224 224 227 231 238 240 238 247 240 235 243 266 267 254 258 259 259 260 264 267 266 266 263 266 269 278 282 279 274 269 273 282 289 290 293 294 297 304
203 209 213 219 218 226 234 237 239 241 245 244 246 248 251 253 260 273 265 263 255 252 266 268 275 266 265 263 266 272 277 280 277 273 273 264 258 262 263 274 277 277 287
211 212 222 224 222 227 239 242 249 249 249 249 252 257 257 254 257 258 264 259 267 267 269 274 275 275 266 263 266 269 284 280 271 270 270 271 267 262 265 267 266 265 266
213 219 221 228 233 235 239 248 252 257 258 263 267 263 258 257 257 259 261 265 262 268 273 274 270 264 264 260 261 267 278 266 262 264 268 270 271 271 267 268 272 271 268
218 220 223 228 235 242 249 256 261 264 265 267 268 270 266 264 261 265 263 267 263 268 267 277 264 264 256 255 266 273 271 256 257 260 261 264 267 265 268 271 268 271 273
225 230 234 239 245 248 251 258 260 265 271 275 272 268 268 273 269 273 270 262 258 262 265 264 268 261 256 264 274 275 271 262 259 256 261 264 262 264 265 268 272 274 274
230 239 243 244 247 251 255 263 264 261 272 278 278 267 269 274 269 265 268 268 258 249 257 261 261 257 256 261 266 268 272 273 277 272 260 261 263 265 266 266 266 268 269
232 237 242 244 247 251 254 254 253 260 275 276 284 271 273 276 258 262 270 269 260 256 254 261 256 247 250 262 269 273 281 285 285 278 266 266 269 269 269 270 271 272 272
234 237 248 247 248 246 246 249 255 263 273 278 275 266 263 265 253 267 269 263 256 252 255 252 249 253 261 261 264 276 283 286 283 277 271 272 275 276 277 277 278 277 276
232 237 242 248 254 249 247 250 258 268 270 280 262 263 268 283 271 268 263 260 259 257 250 249 253 256 261 263 276 281 279 285 285 280 279 281 283 285 284 284 282 280 278
233 239 249 253 258 248 252 257 265 267 268 249 261 263 271 267 266 261 258 256 248 245 243 250 258 261 265 274 282 283 280 281 282 286 289 291 293 293 295 296 297 295 292
238 244 244 249 255 254 258 265 274 270 264 254 254 264 274 265 260 257 252 244 240 240 249 253 254 260 271 281 285 284 284 288 289 292 294 295 298 302 303 305 303 301 298
245 246 246 249 251 255 259 266 275 262 262 258 258 260 268 253 249 245 237 235 241 246 244 245 254 269 285 286 283 285 292 296 299 302 299 307 307 306 305 305 306 305 301
249 251 252 252 254 256 259 268 267 267 253 252 256 259 244 235 231 227 238 238 235 235 238 249 263 280 285 283 288 291 297 302 310 304 305 307 308 307 310 309 308 306 306
252 253 256 257 259 263 264 268 269 262 255 252 251 234 228 223 233 236 232 223 224 233 245 260 278 283 281 284 289 294 297 299 298 302 307 305 309 308 309 306 310 310 311
250 254 258 261 261 259 262 261 253 253 242 232 224 222 229 236 230 233 229 226 230 242 262 281 282 282 283 287 293 296 300 300 302 306 308 300 305 308 308 310 312 313 314
256 252 258 255 251 247 253 243 241 228 215 211 216 222 225 227 229 220 219 223 240 269 283 281 282 284 289 293 296 298 301 301 305 304 307 299 310 309 309 313 312 308 311
245 243 237 239 241 238 228 221 216 212 213 215 220 217 213 215 211 214 226 250 277 283 278 279 284 289 292 293 296 299 299 299 300 309 298 304 304 314 312 311 307 314 315
Height
1553 1558 1563 1566 1570 1573 1575 1577 1579 1582 1584 1586 1588 1589 1590 1591 1592 1594 1595 1595 1597 1597 1597 1598 1597 1595 1596 1596 1596 1596 1596 1596 1596 1595 1595 1596 1595 1595 1594 1593 1592 1592 1591
1554 1559 1563 1566 1570 1573 1576 1578 1579 1581 1584 1586 1587 1588 1589 1592 1593 1594 1595 1595 1597 1597 1598 1598 1597 1597 1596 1596 1596 1597 1597 1596 1595 1595 1595 1595 1594 1594 1593 1593 1591 1591 1590
1556 1560 1565 1566 1570 1574 1576 1577 1579 1580 1583 1584 1586 1587 1588 1591 1592 1593 1595 1595 1596 1597 1598 1596 1598 1598 1597 1596 1596 1596 1597 1596 1596 1595 1595 1595 1595 1594 1593 1592 1591 1590 1589
1557 1561 1565 1568 1570 1574 1575 1577 1579 1579 1582 1584 1586 1587 1587 1591 1592 1593 1593 1594 1594 1595 1595 1597 1597 1597 1597 1595 1595 1595 1595 1595 1594 1594 1594 1594 1594 1593 1593 1592 1590 1589 1588
1557 1561 1564 1567 1570 1573 1574 1576 1578 1579 1580 1582 1584 1586 1588 1589 1591 1593 1592 1592 1593 1593 1592 1594 1595 1595 1595 1595 1594 1593 1593 1592 1592 1592 1591 1591 1591 1591 1591 1590 1589 1587 1586
1556 1560 1562 1566 1568 1571 1573 1575 1577 1578 1581 1582 1584 1584 1586 1589 1589 1590 1590 1590 1591 1590 1590 1592 1593 1593 1593 1593 1592 1592 1591 1590 1591 1590 1589 1588 1588 1588 1587 1586 1586 1585 1583
1553 1557 1560 1563 1566 1568 1572 1573 1574 1577 1578 1580 1582 1582 1584 1585 1586 1587 1588 1587 1588 1586 1588 1588 1590 1590 1590 1589 1589 1590 1589 1589 1588 1588 1587 1586 1586 1585 1585 1583 1583 1582 1581
1550 1553 1556 1560 1563 1566 1569 1569 1571 1573 1575 1577 1580 1580 1582 1583 1582 1581 1582 1582 1583 1583 1583 1584 1584 1584 1585 1585 1586 1586 1585 1585 1585 1584 1584 1583 1582 1582 1581 1580 1579 1578 1577
1546 1550 1554 1558 1560 1563 1565 1566 1566 1568 1571 1572 1575 1580 1578 1578 1576 1576 1577 1577 1579 1579 1579 1579 1579 1579 1579 1579 1579 1580 1580 1581 1581 1581 1580 1579 1578 1576 1575 1574 1573 1571 1571
1542 1547 1550 1553 1556 1559 1561 1562 1563 1564 1567 1566 1569 1571 1572 1573 1573 1573 1572 1571 1572 1572 1573 1573 1573 1573 1573 1573 1573 1573 1574 1574 1574 1575 1575 1575 1573 1571 1570 1567 1566 1565 1564
1539 1543 1547 1549 1552 1553 1557 1557 1558 1559 1562 1562 1563 1564 1566 1565 1567 1566 1565 1566 1566 1566 1566 1568 1567 1568 1568 1567 1567 1567 1568 1567 1568 1568 1568 1568 1569 1569 1567 1565 1562 1560 1559
1534 1537 1540 1544 1547 1549 1550 1551 1553 1555 1555 1556 1557 1557 1557 1557 1558 1559 1558 1558 1558 1560 1561 1561 1561 1562 1562 1562 1562 1561 1561 1559 1560 1560 1561 1562 1561 1561 1560 1559 1558 1556 1554
1527 1531 1534 1537 1539 1542 1544 1546 1548 1548 1549 1549 1549 1548 1549 1549 1550 1550 1550 1550 1551 1552 1553 1554 1554 1553 1554 1555 1555 1553 1552 1552 1552 1552 1552 1552 1552 1551 1551 1551 1550 1549 1547
1520 1525 1528 1530 1532 1533 1537 1540 1541 1542 1542 1542 1542 1542 1540 1540 1540 1539 1540 1543 1542 1544 1543 1543 1545 1546 1546 1547 1547 1546 1545 1545 1544 1544 1544 1542 1542 1542 1542 1541 1540 1538 1537
1513 1517 1519 1520 1523 1526 1529 1531 1531 1533 1533 1533 1534 1533 1532 1533 1530 1532 1534 1534 1532 1535 1532 1536 1536 1537 1538 1537 1538 1537 1537 1537 1537 1536 1537 1535 1534 1534 1533 1532 1530 1529 1527
1502 1507 1509 1511 1513 1517 1519 1521 1522 1523 1523 1523 1524 1523 1522 1522 1523 1525 1524 1524 1525 1526 1526 1527 1529 1531 1531 1532 1532 1531 1529 1529 1530 1529 1528 1526 1525 1524 1523 1522 1520 1518 1516
1490 1494 1497 1499 1502 1505 1508 1510 1512 1514 1513 1512 1511 1511 1513 1513 1515 1514 1515 1516 1516 1518 1519 1518 1521 1522 1524 1526 1526 1525 1523 1520 1520 1520 1519 1518 1516 1515 1513 1511 1509 1506 1504
1481 1483 1485 1489 1493 1495 1498 1501 1502 1504 1505 1501 1503 1503 1504 1505 1505 1505 1506 1506 1508 1510 1511 1514 1513 1515 1516 1517 1517 1516 1515 1514 1512 1511 1510 1509 1507 1506 1504 1501 1498 1496 1493
1472 1474 1477 1479 1483 1485 1488 1490 1492 1494 1495 1494 1497 1497 1497 1497 1496 1497 1498 1499 1501 1504 1503 1506 1507 1509 1509 1510 1508 1507 1506 1506 1505 1504 1502 1499 1497 1495 1492 1488 1485 1482 1479
1462 1464 1468 1471 1475 1476 1476 1478 1481 1483 1484 1487 1488 1488 1487 1487 1487 1489 1491 1493 1495 1497 1498 1500 1500 1502 1502 1502 1500 1499 1499 1497 1496 1495 1492 1490 1486 1484 1481 1477 1474 1470 1465
1451 1454 1459 1462 1465 1467 1467 1470 1472 1473 1475 1477 1478 1480 1479 1480 1482 1484 1486 1488 1491 1492 1493 1494 1494 1495 1495 1494 1493 1492 1490 1488 1487 1485 1481 1481 1476 1474 1471 1467 1463 1460 1455
1442 1444 1446 1450 1453 1455 1458 1460 1461 1464 1465 1468 1469 1470 1471 1472 1475 1477 1480 1482 1484 1485 1486 1487 1488 1488 1488 1487 1486 1484 1482 1480 1477 1475 1471 1470 1467 1464 1460 1456 1452 1448 1443
1433 1435 1438 1440 1441 1444 1448 1452 1453 1455 1456 1457 1459 1461 1463 1466 1469 1471 1474 1476 1477 1479 1480 1481 1482 1481 1480 1479 1478 1476 1474 1471 1469 1467 1463 1458 1458 1454 1451 1447 1442 1437 1431
1425 1427 1431 1433 1434 1436 1440 1443 1444 1447 1448 1450 1453 1456 1459 1461 1463 1465 1468 1470 1471 1472 1473 1474 1474 1473 1473 1472 1471 1469 1467 1464 1461 1460 1459 1449 1449 1444 1440 1436 1431 1426 1422
1419 1421 1423 1425 1427 1430 1432 1434 1437 1439 1441 1444 1448 1450 1453 1456 1457 1459 1462 1463 1465 1466 1466 1467 1467 1466 1465 1465 1464 1463 1460 1458 1454 1454 1452 1445 1442 1435 1430 1425 1422 1417 1414
1412 1415 1416 1419 1420 1422 1425 1429 1432 1435 1437 1440 1444 1446 1449 1451 1453 1456 1457 1458 1460 1461 1461 1462 1461 1460 1460 1458 1457 1456 1454 1452 1451 1447 1446 1442 1437 1435 1422 1417 1413 1409 1406